TimeEDT,TemperatureF,Dew PointF,Humidity,Sea Level PressureIn,VisibilityMPH,Wind Direction,Wind SpeedMPH,Gust SpeedMPH,PrecipitationIn,Events,Conditions,WindDirDegrees,DateUTC
12:54 AM,54.0,52.0,93,30.40,10.0,WSW,4.6,-,N/A,,Clear,240,2011-10-09 04:54:00
1:54 AM,53.1,51.1,93,30.41,10.0,WSW,4.6,-,N/A,,Partly Cloudy,240,2011-10-09 05:54:00
2:54 AM,54.0,51.1,90,30.41,10.0,WSW,4.6,-,N/A,,Partly Cloudy,240,2011-10-09 06:54:00
3:54 AM,52.0,50.0,93,30.40,10.0,SW,4.6,-,N/A,,Partly Cloudy,230,2011-10-09 07:54:00
4:54 AM,53.1,48.9,86,30.41,10.0,SW,5.8,-,N/A,,Partly Cloudy,220,2011-10-09 08:54:00
5:54 AM,53.1,48.9,86,30.42,10.0,SW,8.1,-,N/A,,Partly Cloudy,220,2011-10-09 09:54:00
6:54 AM,53.1,48.0,83,30.43,10.0,SW,8.1,-,N/A,,Partly Cloudy,230,2011-10-09 10:54:00
7:54 AM,53.1,48.9,86,30.44,10.0,SW,6.9,-,N/A,,Partly Cloudy,220,2011-10-09 11:54:00
8:54 AM,57.9,52.0,81,30.45,10.0,SW,5.8,-,N/A,,Clear,230,2011-10-09 12:54:00
9:54 AM,64.0,53.1,67,30.45,10.0,SW,5.8,-,N/A,,Clear,230,2011-10-09 13:54:00
10:54 AM,69.1,53.1,57,30.44,10.0,SW,5.8,-,N/A,,Clear,230,2011-10-09 14:54:00
11:54 AM,73.0,55.0,53,30.43,10.0,WSW,6.9,-,N/A,,Clear,250,2011-10-09 15:54:00
12:54 PM,77.0,54.0,45,30.41,10.0,WNW,4.6,-,N/A,,Clear,300,2011-10-09 16:54:00
1:54 PM,79.0,55.0,44,30.38,10.0,West,5.8,-,N/A,,Partly Cloudy,270,2011-10-09 17:54:00
2:54 PM,79.0,55.9,45,30.35,10.0,SW,4.6,-,N/A,,Clear,230,2011-10-09 18:54:00
3:54 PM,80.1,55.0,42,30.34,10.0,WNW,6.9,-,N/A,,Clear,290,2011-10-09 19:54:00
4:54 PM,79.0,53.1,40,30.33,10.0,West,5.8,-,N/A,,Clear,270,2011-10-09 20:54:00
5:54 PM,77.0,54.0,45,30.34,10.0,West,3.5,-,N/A,,Clear,280,2011-10-09 21:54:00
6:54 PM,69.1,55.9,63,30.34,10.0,Calm,Calm,-,N/A,,Partly Cloudy,0,2011-10-09 22:54:00
7:54 PM,63.0,57.0,81,30.34,10.0,Calm,Calm,-,N/A,,Partly Cloudy,0,2011-10-09 23:54:00
8:54 PM,61.0,55.9,83,30.33,10.0,Calm,Calm,-,N/A,,Partly Cloudy,0,2011-10-10 00:54:00
9:54 PM,57.0,54.0,89,30.34,10.0,SW,3.5,-,N/A,,Partly Cloudy,230,2011-10-10 01:54:00
10:54 PM,55.0,53.1,93,30.34,10.0,SW,5.8,-,N/A,,Scattered Clouds,230,2011-10-10 02:54:00
11:54 PM,55.0,52.0,89,30.34,10.0,WSW,5.8,-,N/A,,Scattered Clouds,240,2011-10-10 03:54:00